Date,TemperatureHighF,TemperatureAvgF,TemperatureLowF,DewpointHighF,DewpointAvgF,DewpointLowF,HumidityHigh,HumidityAvg,HumidityLow,PressureMaxIn,PressureMinIn,WindSpeedMaxMPH,WindSpeedAvgMPH,GustSpeedMaxMPH,PrecipitationSumIn
2013-5-1,91,78,63,-100,-100,-100,0,0,100,0.00,40.00,16,6,24,0.00
2013-5-2,86,76,68,-100,-100,-100,0,0,100,0.00,40.00,25,14,35,0.00
2013-5-3,91,78,67,-100,-100,-100,0,0,100,0.00,40.00,16,6,26,0.00
2013-5-4,91,80,69,-100,-100,-100,0,0,100,0.00,40.00,15,7,23,0.00
2013-5-5,83,72,62,-100,-100,-100,0,0,100,0.00,40.00,25,8,28,0.00
2013-5-6,77,69,58,-100,-100,-100,0,0,100,0.00,40.00,21,9,25,0.00
2013-5-7,72,65,58,-100,-100,-100,0,0,100,0.00,40.00,25,-30,25,0.00
2013-5-8,77,66,54,-100,-100,-100,0,0,100,0.00,40.00,12,5,16,0.00
2013-5-9,81,71,57,-100,-100,-100,0,0,100,0.00,40.00,11,6,14,0.00
2013-5-10,90,79,63,-100,-100,-100,0,0,100,0.00,40.00,17,-7,20,0.00
2013-5-11,94,84,69,-100,-100,-100,0,0,100,0.00,40.00,18,6,20,0.00
2013-5-12,98,88,71,-100,-100,-100,0,0,100,0.00,40.00,14,-32,19,0.00
2013-5-13,101,89,74,-100,-100,-100,0,0,100,0.00,40.00,12,6,14,0.00
2013-5-14,100,88,73,-100,-100,-100,0,0,100,0.00,40.00,17,8,24,0.00
2013-5-15,94,82,69,-100,-100,-100,0,0,100,0.00,40.00,16,6,19,0.00
2013-5-16,95,73,66,-100,-100,-100,0,0,100,0.00,40.00,14,8,18,0.00
2013-5-17,87,75,65,-100,-100,-100,0,0,100,0.00,40.00,22,8,25,0.00
2013-5-18,87,76,61,-100,-100,-100,0,0,100,0.00,40.00,10,5,12,0.00
2013-5-19,90,78,64,-100,-100,-100,0,0,100,0.00,40.00,10,5,13,0.00
2013-5-20,91,81,67,-100,-100,-100,0,0,100,0.00,40.00,26,10,35,0.00
2013-5-21,97,88,69,-100,-100,-100,0,0,100,0.00,40.00,14,-138,18,0.00
2013-5-22,95,82,68,-100,-100,-100,0,0,100,0.00,40.00,15,6,25,0.00
2013-5-23,89,77,61,-100,-100,-100,0,0,100,0.00,40.00,14,8,20,0.00
2013-5-24,89,76,62,-100,-100,-100,0,0,100,0.00,40.00,9,4,12,0.00
2013-5-25,91,79,63,-100,-100,-100,0,0,100,0.00,40.00,16,6,17,0.00
2013-5-26,89,76,64,-100,-100,-100,0,0,100,0.00,40.00,14,7,19,0.00
2013-5-27,90,78,68,-100,-100,-100,0,0,100,0.00,40.00,15,5,16,0.00
2013-5-28,91,81,68,-100,-100,-100,0,0,100,0.00,40.00,18,7,20,0.00
2013-5-29,91,78,66,-100,-100,-100,0,0,100,0.00,40.00,15,6,20,0.00
2013-5-30,91,81,69,-100,-100,-100,0,0,100,0.00,40.00,16,9,20,0.00
2013-5-31,93,81,69,-100,-100,-100,0,0,100,0.00,40.00,16,6,17,0.00